Location: Newark
(60.1788°N, 24.7987°E)
Time: 15:54:44
(UTC+00:00)

N. Korean satellite - Visible Passes

Search period start: 19 October 2019 00:00
Search period end: 29 October 2019 00:00
Orbit: 455 x 508 km, 97.2° (Epoch: 19 October)

Date Brightness Start Highest point End Pass type
(mag) Time Alt. Az. Time Alt. Az. Time Alt. Az.
19 Oct 9.4 03:36:47 10° NE 03:39:42 23° E 03:42:37 10° SE visible
19 Oct 8.9 15:55:08 10° SSW 15:58:12 29° W 16:01:19 10° NNW visible
20 Oct 10.1 03:12:05 10° NE 03:14:08 14° E 03:16:12 10° ESE visible
21 Oct 7.6 04:19:12 10° NNE 04:22:44 53° E 04:26:19 10° S visible
21 Oct 10.2 16:39:40 10° WSW 16:41:24 13° W 16:43:09 10° NW visible
22 Oct 8.7 03:54:02 10° NNE 03:57:19 32° E 04:00:37 10° SSE visible
22 Oct 9.5 16:13:06 10° SW 16:15:49 21° W 16:18:34 10° NW visible
23 Oct 9.6 03:29:03 10° NE 03:31:49 20° E 03:34:35 10° SE visible
23 Oct 8.5 15:47:06 10° SSW 15:50:18 34° W 15:53:34 10° NNW visible
24 Oct 10.2 03:04:30 10° ENE 03:06:13 13° E 03:07:55 10° ESE visible
24 Oct 6.8 04:36:37 10° NNE 04:40:15 78° ESE 04:43:55 10° SSW visible
25 Oct 7.9 04:11:21 10° NNE 04:14:52 46° E 04:18:25 10° S visible
25 Oct 10.0 16:31:17 10° SW 16:33:26 15° W 16:35:36 10° NW visible
26 Oct 9.0 03:46:13 10° NNE 03:49:24 28° E 03:52:37 10° SSE visible
26 Oct 9.2 16:04:57 10° SSW 16:07:52 25° W 16:10:50 10° NW visible
27 Oct 9.8 03:21:18 10° NE 03:23:53 18° E 03:26:26 10° SE visible
27 Oct 8.1 15:39:03 10° S 15:42:22 40° W 15:45:46 10° NNW visible
28 Oct 10.4 02:57:03 10° ENE 02:58:15 11° E 02:59:25 10° ESE visible
28 Oct 7.1 04:28:42 10° NNE 04:32:22 67° ESE 04:36:03 10° S visible
28 Oct 10.3 16:50:00 10° W 16:51:05 11° W 16:52:11 10° WNW visible
